Hill City, KS

9:22 AM CDT on September 26, 2016 (GMT -0500)
Hill City Municipal

Weather History for KHLC - June, 2013

Change the Weather History Date:

Thursday, June 20, 2013

  Actual Average Record
Temperature  
Mean Temperature 84 °F 74 °F  
Max Temperature 97 °F 88 °F 108 °F (1974)
Min Temperature 71 °F 61 °F 41 °F (1973)
Cooling Degree Days 19    
Growing Degree Days 34 (Base 50)    
Moisture  
Dew Point 65 °F    
Average Humidity 64    
Maximum Humidity 90    
Minimum Humidity 29    
Precipitation  
Precipitation T in 0.10 in 0.49 in (2011)
Month to date precipitation 2.68 1.91  
Year to date precipitation 7.02 10.41  
Sea Level Pressure  
Sea Level Pressure 29.75 in    
Wind  
Wind Speed 15 mph (South)    
Max Wind Speed 22 mph    
Max Gust Speed 33 mph    
Visibility 10 miles    
Events      
T = Trace of Precipitation, MM = Missing Value Source: NWS Daily Summary

Daily Weather History Graph

Daily Weather History Graph

Search for Another Location

Airport or City:

Trip Planner

Search our weather history database for the weather conditions in past years. The results will help you decide how hot, cold, wet, or windy it might be!

Date:

Astronomy

Jun. 20, 2013 Rise Set
Actual Time 6:12 AM CDT 9:09 PM CDT
Civil Twilight 5:40 AM CDT 9:41 PM CDT
Nautical Twilight 4:59 AM CDT 10:22 PM CDT
Astronomical Twilight 4:11 AM CDT 11:10 PM CDT
Moon 6:14 PM CDT (6/20) 3:39 AM CDT (6/20)
Length of Visible Light 16h 01m
Length of Day
14h 56m
Waxing Gibbous, 89% of the Moon is Illuminated
Jun 20
Waxing Gibbous
Jun 23
Full
Jun 29
Last Quarter
Jul 8
New
Jul 15
First Quarter

Hourly Weather History & Observations

Time (CDT) Temp. Heat Index Dew Point Humidity Pressure Visibility Wind Dir Wind Speed Gust Speed Precip Events Conditions
12:53 AM 73.0 °F - 64.0 °F 73% 29.81 in 10.0 mi South 16.1 mph 21.9 mph N/A   Clear
1:53 AM 73.0 °F - 64.9 °F 76% 29.81 in 10.0 mi South 15.0 mph 23.0 mph N/A   Clear
2:53 AM 71.1 °F - 66.0 °F 84% 29.80 in 10.0 mi SSE 10.4 mph - N/A   Clear
3:53 AM 71.1 °F - 66.9 °F 87% 29.78 in 9.0 mi SE 9.2 mph - N/A   Scattered Clouds
4:05 AM 71.6 °F - 66.2 °F 83% 29.85 in 9.0 mi SSE 11.5 mph 18.4 mph N/A   Mostly Cloudy
4:34 AM 71.6 °F - 68.0 °F 88% 29.84 in 8.0 mi SSE 12.7 mph 20.7 mph N/A   Overcast
4:53 AM 71.1 °F - 68.0 °F 90% 29.75 in 8.0 mi SSE 13.8 mph 20.7 mph N/A   Overcast
5:28 AM 71.6 °F - 68.0 °F 88% 29.81 in 9.0 mi South 17.3 mph 24.2 mph N/A   Scattered Clouds
5:53 AM 71.1 °F - 68.0 °F 90% 29.73 in 9.0 mi South 21.9 mph 28.8 mph N/A   Partly Cloudy
6:25 AM 71.6 °F - 68.0 °F 88% 29.80 in 8.0 mi South 18.4 mph 25.3 mph N/A   Mostly Cloudy
6:48 AM 71.6 °F - 68.0 °F 88% 29.79 in 8.0 mi South 16.1 mph 26.5 mph N/A   Scattered Clouds
6:53 AM 71.1 °F - 68.0 °F 90% 29.72 in 9.0 mi South 17.3 mph 26.5 mph N/A   Partly Cloudy
7:53 AM 73.0 °F - 66.9 °F 81% 29.74 in 10.0 mi South 16.1 mph 28.8 mph N/A   Partly Cloudy
8:20 AM 73.4 °F - 66.2 °F 78% 29.81 in 10.0 mi South 18.4 mph 33.4 mph N/A   Mostly Cloudy
8:51 AM 73.4 °F - 66.2 °F 78% 29.82 in 10.0 mi South 16.1 mph 33.4 mph N/A   Scattered Clouds
8:53 AM 73.9 °F - 66.9 °F 79% 29.75 in 10.0 mi South 19.6 mph 33.4 mph N/A   Scattered Clouds
9:53 AM 78.1 °F - 66.0 °F 66% 29.76 in 10.0 mi South 15.0 mph 27.6 mph N/A   Clear
10:53 AM 82.0 °F 83.8 °F 64.9 °F 56% 29.75 in 10.0 mi South 13.8 mph 28.8 mph N/A   Clear
11:53 AM 86.0 °F 87.6 °F 64.9 °F 49% 29.73 in 10.0 mi South 18.4 mph 26.5 mph N/A   Clear
12:53 PM 88.0 °F 89.6 °F 64.9 °F 46% 29.72 in 10.0 mi SSW 16.1 mph 28.8 mph N/A   Clear
1:53 PM 91.0 °F 91.9 °F 63.0 °F 39% 29.70 in 10.0 mi South 17.3 mph 23.0 mph N/A   Clear
2:53 PM 95.0 °F 95.6 °F 62.1 °F 33% 29.68 in 10.0 mi South 15.0 mph 26.5 mph N/A   Clear
3:53 PM 96.1 °F 95.6 °F 59.0 °F 29% 29.68 in 10.0 mi SSW 17.3 mph 25.3 mph N/A   Clear
4:53 PM 96.1 °F 96.0 °F 60.1 °F 30% 29.67 in 10.0 mi South 17.3 mph 25.3 mph N/A   Clear
5:53 PM 97.0 °F 97.4 °F 61.0 °F 30% 29.66 in 10.0 mi South 17.3 mph 23.0 mph N/A   Clear
6:53 PM 96.1 °F 95.6 °F 59.0 °F 29% 29.66 in 10.0 mi South 16.1 mph 29.9 mph N/A   Clear
7:53 PM 91.9 °F 91.8 °F 61.0 °F 35% 29.66 in 10.0 mi South 13.8 mph 25.3 mph N/A   Clear
8:53 PM 89.1 °F 90.3 °F 64.0 °F 43% 29.69 in 10.0 mi South 11.5 mph - N/A   Clear
9:53 PM 87.1 °F 88.9 °F 64.9 °F 48% 29.71 in 10.0 mi South 16.1 mph 25.3 mph N/A   Clear
10:53 PM 86.0 °F 87.6 °F 64.9 °F 49% 29.73 in 10.0 mi South 15.0 mph 23.0 mph N/A   Clear
11:53 PM 84.9 °F 85.9 °F 63.0 °F 48% 29.76 in 10.0 mi South 12.7 mph - N/A   Clear